Location: Antioch Church
(34.9543°N, 88.5145°W)
Time: 07:13:00
(UTC+00:00)

Cosmos 1452 Rocket - Pass Details

Date: 11 December 2019
Orbit: 767 x 774 km, 74.1° (Epoch: 26 January)

Event Time Altitude Azimuth Distance (km) Brightness Sun altitude
Rises 10:47:11 0° 197° (SSW) 3,228 6.7 -24.8°
Reaches altitude 10° 10:49:33 10° 198° (SSW) 2,306 5.9 -24.3°
Maximum altitude 10:54:48 86° 286° (WNW) 779 3.4 -23.2°
Drops below altitude 10° 11:00:05 10° 16° (NNE) 2,324 6.0 -22.2°
Sets 11:02:29 0° 17° (NNE) 3,256 6.8 -21.7°
